Language selection

Features

My Weather Profile Weather Topics  | 

Pacific - South Coast: Past 24 Hour Conditions

 

La Perouse Bank - 46206

02:00 PM PST 03 December 2020Buoy position: 48.83N 126.0W
Disclaimer

This table is a summary of hourly weather conditions for the past 24 hours.
Please note that these observations might not always be representative of weather conditions over their associated marine area.

Date / Time
(PST)
Wind(knots) Wave height(m) Wave period(s) Pressure(kPa) Air tempC) Water tempC)
03 December 2020
14:00 ESE 22 gust 25 3.2 12.0 102.3 9 9
13:00 SE 19 gust 23 3.1 12.0 102.4 9 9
12:00 SE 19 gust 25 3.6 12.0 102.4 9 9
11:00 SE 19 gust 23 3.5 14.0 102.3 9 9
10:00 SE 19 gust 27 3.4 15.0 102.3 9 9
9:00 ESE 19 gust 25 3.4 14.0 102.3 9 9
8:00 ESE 19 gust 23 3.4 14.0 102.3 9 9
7:00 ESE 17 gust 23 3.0 16.0 102.2 10 10
6:00 ESE 17 gust 23 2.9 16.0 102.2 9 10
5:00 ESE 17 gust 23 3.1 15.0 102.2 10 10
4:00 SE 17 gust 23 3.1 16.0 102.1 9 10
3:00 SE 17 gust 23 2.7 18.0 102.1 10 9
2:00 SE 17 gust 23 2.9 16.0 102.1 10 9
1:00 SE 17 gust 22 3.0 18.0 102.1 10 9
0:00 ESE 17 gust 23 2.7 18.0 102.1 9 9
02 December 2020
23:00 ESE 17 gust 22 2.7 17.0 102.1 9 9
22:00 ESE 17 gust 19 2.8 18.0 102.1 9 9
21:00 ESE 16 gust 19 2.9 18.0 102.1 9 9
20:00 ESE 17 gust 22 2.7 18.0 102.1 9 9
19:00 ESE 17 gust 23 2.9 12.0 102.1 10 9
18:00 ESE 17 gust 22 2.7 13.0 102.1 10 9
17:00 ESE 17 gust 23 2.7 12.0 102.0 10 9
16:00 SE 16 gust 17 2.4 12.0 102.0 9 9
15:00 SE 17 gust 23 2.5 13.0 102.0 9 9
14:00 SE 16 gust 22 2.7 12.0 102.0 9 9

Zoom-in to make a selection

Map of Pacific - South Coast marine weather areas South Nomad - 46036 Sentry Shoal - 46131 South Brooks - 46132 Halibut Bank - 46146 South Moresby - 46147 South Hecate Strait - 46185 West Sea Otter - 46204 La Perouse Bank - 46206 East Dellwood - 46207 Georgia Strait - 46303 English Bay - 46304 Discovery Island Esquimalt Harbour Kelp Reefs Malahat Race Rocks Lightstation Saturna Island Sheringham Point University of Victoria Victoria Gonzales Victoria Int'l Airport Ballenas Islands Campbell River Airport Comox Airport Entrance Island Fanny Island Nanaimo Airport Port Hardy Airport Sisters Islets Estevan Point Port Alberni Sartine Island Solander Island Tofino Airport Grief Point Howe Sound - Pam Rocks Powell River Airport Sechelt Squamish Airport Cape St.James Bella Bella Airport Bella Coola Airport Cathedral Point Herbert Island Point Atkinson Sand Heads Lightstation Tsawwassen Ferry Terminal Vancouver Int'l Airport Vancouver Harbour West Vancouver
Legend:
buoy Buoy
land station Land Station

Pacific - South Coast Area

Another Region

What we are doing

Features

Need to travel Alberta Highway 93?

Go prepared with Highway 93 forecasts. Highway regions are available in the Alberta text forecast bulletin between Lake Louise and Jasper. (Photo by: Natalie Anderson)

Date modified: